TimeEDT,TemperatureF,Dew PointF,Humidity,Sea Level PressureIn,VisibilityMPH,Wind Direction,Wind SpeedMPH,Gust SpeedMPH,PrecipitationIn,Events,Conditions,WindDirDegrees,DateUTC
12:53 AM,73.0,71.1,93,30.15,7.0,ENE,4.6,-,N/A,,Scattered Clouds,70,2013-07-05 04:53:00
1:53 AM,73.0,70.0,90,30.12,10.0,ENE,5.8,-,N/A,,Scattered Clouds,70,2013-07-05 05:53:00
2:53 AM,73.0,70.0,90,30.11,10.0,Calm,Calm,-,N/A,,Scattered Clouds,0,2013-07-05 06:53:00
3:53 AM,73.0,71.1,93,30.09,10.0,ENE,3.5,-,N/A,,Scattered Clouds,60,2013-07-05 07:53:00
4:53 AM,73.9,72.0,93,30.09,10.0,Calm,Calm,-,N/A,,Scattered Clouds,0,2013-07-05 08:53:00
5:53 AM,73.9,73.0,97,30.10,9.0,Calm,Calm,-,N/A,,Scattered Clouds,0,2013-07-05 09:53:00
6:53 AM,75.0,73.0,94,30.12,8.0,Calm,Calm,-,N/A,,Mostly Cloudy,0,2013-07-05 10:53:00
7:53 AM,77.0,75.0,94,30.12,10.0,East,3.5,-,N/A,,Mostly Cloudy,90,2013-07-05 11:53:00
8:53 AM,80.1,75.0,85,30.12,10.0,East,6.9,-,N/A,,Mostly Cloudy,100,2013-07-05 12:53:00
9:53 AM,82.9,75.0,77,30.13,10.0,ESE,8.1,-,N/A,,Mostly Cloudy,110,2013-07-05 13:53:00
10:53 AM,84.9,75.0,72,30.13,10.0,East,12.7,18.4,N/A,,Mostly Cloudy,100,2013-07-05 14:53:00
11:53 AM,87.1,73.0,63,30.13,10.0,SE,8.1,18.4,N/A,,Mostly Cloudy,140,2013-07-05 15:53:00
12:53 PM,88.0,72.0,59,30.11,10.0,SE,11.5,19.6,N/A,,Scattered Clouds,140,2013-07-05 16:53:00
1:53 PM,89.1,72.0,57,30.09,10.0,ESE,9.2,17.3,0.00,,Scattered Clouds,120,2013-07-05 17:53:00
2:53 PM,77.0,71.1,82,30.12,5.0,ESE,17.3,36.8,0.00,Rain,Light Rain,110,2013-07-05 18:53:00
3:53 PM,78.1,72.0,81,30.12,10.0,SSE,6.9,-,0.10,,Overcast,160,2013-07-05 19:53:00
4:53 PM,79.0,73.0,82,30.10,10.0,Calm,Calm,-,N/A,,Overcast,0,2013-07-05 20:53:00
5:53 PM,80.1,73.9,81,30.08,10.0,Calm,Calm,-,N/A,,Overcast,0,2013-07-05 21:53:00
6:53 PM,81.0,73.9,79,30.09,10.0,SE,4.6,-,N/A,,Overcast,130,2013-07-05 22:53:00
7:53 PM,81.0,73.9,79,30.10,10.0,Calm,Calm,-,N/A,,Overcast,0,2013-07-05 23:53:00
8:53 PM,80.1,73.9,81,30.10,10.0,Calm,Calm,-,N/A,,Mostly Cloudy,0,2013-07-06 00:53:00
9:53 PM,80.1,75.0,85,30.11,8.0,ESE,3.5,-,N/A,,Mostly Cloudy,110,2013-07-06 01:53:00
10:53 PM,79.0,73.0,82,30.13,10.0,ESE,4.6,-,0.00,,Scattered Clouds,110,2013-07-06 02:53:00
11:53 PM,78.1,73.0,84,30.13,10.0,East,3.5,-,N/A,,Scattered Clouds,90,2013-07-06 03:53:00